Weather History for KLCH - September, 2014

Change the Weather History Date:

Tuesday, September 16, 2014

  Actual Average Record
Temperature  
Mean Temperature 82 °F 79 °F  
Max Temperature 89 °F 88 °F 99 °F (2004)
Min Temperature 75 °F 69 °F 53 °F (1902)
Degree Days  
Heating Degree Days 0 0  
Month to date heating degree days 0 0  
Since 1 July heating degree days 0 0  
Cooling Degree Days 17 14  
Month to date cooling degree days 268 247  
Year to date cooling degree days 2278 2376  
Growing Degree Days 32 (Base 50)    
Moisture  
Dew Point 74 °F    
Average Humidity 81    
Maximum Humidity 94    
Minimum Humidity 68    
Precipitation  
Precipitation 1.17 in 0.18 in 3.94 in (1975)
Month to date precipitation 4.07 3.06  
Year to date precipitation 56.14 41.28  
Snow  
Snow 0.00 in 0.00 in 0.00 in ()
Month to date snowfall 0.0 0.0  
Since 1 July snowfall 0.0 0.0  
Since 1 September snowfall 0.0 0.0  
Snow Depth 0.00 in    
Sea Level Pressure  
Sea Level Pressure 30.05 in    
Wind  
Wind Speed 4 mph (ESE)    
Max Wind Speed 22 mph    
Max Gust Speed 25 mph    
Visibility 8 miles    
Events Rain , Thunderstorm    
T = Trace of Precipitation, MM = Missing Value Source: NWS Daily Summary

Daily Weather History Graph

Daily Weather History Graph

Search for Another Location

Airport or City:

Trip Planner

Search our weather history database for the weather conditions in past years. The results will help you decide how hot, cold, wet, or windy it might be!

Date:

Astronomy

Sep. 16, 2014 Rise Set
Actual Time 6:57 AM CDT 7:16 PM CDT
Civil Twilight 6:33 AM CDT 7:40 PM CDT
Nautical Twilight 6:05 AM CDT 8:08 PM CDT
Astronomical Twilight 5:37 AM CDT 8:37 PM CDT
Moon 12:26 AM CDT (9/16) 2:23 PM CDT (9/16)
Length of Visible Light 13h 06m
Length of Day
12h 18m
Last Quarter, 44% of the Moon is Illuminated
Sep 16
Last Quarter
Sep 24
New
Oct 1
First Quarter
Oct 8
Full
Oct 15
Last Quarter

Hourly Weather History & Observations

Time (CDT) Temp. Heat Index Dew Point Humidity Pressure Visibility Wind Dir Wind Speed Gust Speed Precip Events Conditions
12:53 AM 78.1 °F - 75.0 °F 90% 30.10 in 10.0 mi ENE 5.8 mph - N/A   Clear
1:53 AM 75.9 °F - 73.9 °F 94% 30.09 in 10.0 mi NNE 4.6 mph - N/A   Clear
2:53 AM 75.9 °F - 73.0 °F 91% 30.08 in 10.0 mi NE 5.8 mph - N/A   Clear
3:53 AM 75.9 °F - 73.0 °F 91% 30.07 in 10.0 mi ENE 3.5 mph - N/A   Clear
4:53 AM 75.0 °F - 72.0 °F 90% 30.07 in 10.0 mi NE 3.5 mph - N/A   Clear
5:53 AM 75.0 °F - 72.0 °F 90% 30.08 in 10.0 mi Calm Calm - N/A   Partly Cloudy
6:53 AM 75.0 °F - 72.0 °F 90% 30.08 in 10.0 mi NE 3.5 mph - N/A   Clear
7:53 AM 77.0 °F - 73.0 °F 88% 30.09 in 10.0 mi ENE 4.6 mph - N/A   Clear
8:53 AM 82.0 °F 88.6 °F 75.0 °F 79% 30.09 in 10.0 mi ENE 3.5 mph - N/A   Clear
9:53 AM 84.9 °F 94.1 °F 75.9 °F 74% 30.10 in 10.0 mi Calm Calm - N/A   Clear
10:53 AM 87.1 °F 96.3 °F 75.0 °F 67% 30.10 in 10.0 mi NNW 3.5 mph - N/A   Scattered Clouds
11:53 AM 82.9 °F 90.8 °F 75.9 °F 79% 30.07 in 10.0 mi SW 9.2 mph - N/A   Scattered Clouds
12:46 PM 82.0 °F 88.6 °F 75.0 °F 79% 30.05 in 10.0 mi WSW 4.6 mph - 0.00 in Rain Light Rain
12:53 PM 82.0 °F 88.6 °F 75.0 °F 79% 30.07 in 5.0 mi SW 4.6 mph - 0.01 in Rain Rain
1:03 PM 80.1 °F 85.4 °F 75.9 °F 87% 30.06 in 1.0 mi SSE 16.1 mph - 0.02 in Rain Heavy Rain
1:10 PM 79.0 °F - 75.9 °F 90% 30.06 in 1.0 mi ESE 21.9 mph - 0.08 in Rain , Thunderstorm Heavy Rain
1:16 PM 75.9 °F - 73.0 °F 91% 30.06 in 1.0 mi ESE 10.4 mph - 0.34 in Rain , Thunderstorm Heavy Rain
1:25 PM 75.0 °F - 73.0 °F 94% 30.06 in 1.0 mi SSE 11.5 mph - 0.81 in Rain Heavy Rain
1:33 PM 75.0 °F - 73.9 °F 96% 30.04 in 1.0 mi Variable 5.8 mph - 1.11 in Rain , Thunderstorm Heavy Thunderstorms and Rain
1:51 PM 75.2 °F - 73.4 °F 94% 30.04 in 1.0 mi SW 6.9 mph - 1.16 in Rain , Thunderstorm Light Thunderstorms and Rain
1:53 PM 75.9 °F - 73.0 °F 91% 30.06 in 1.0 mi SW 5.8 mph - 1.16 in Rain , Thunderstorm Light Thunderstorms and Rain
2:00 PM 75.9 °F - 73.9 °F 94% 30.04 in 10.0 mi SSW 5.8 mph - 0.00 in Rain , Thunderstorm Light Thunderstorms and Rain
2:08 PM 77.0 °F - 73.9 °F 90% 30.02 in 10.0 mi South 6.9 mph - 0.00 in Rain Light Rain
2:53 PM 81.0 °F 86.7 °F 75.0 °F 82% 30.03 in 10.0 mi SSW 5.8 mph - 0.00 in   Clear
3:53 PM 82.0 °F 87.4 °F 73.0 °F 74% 30.01 in 10.0 mi SSE 15.0 mph - N/A   Clear
4:53 PM 79.0 °F - 72.0 °F 79% 30.00 in 10.0 mi Calm Calm - N/A   Mostly Cloudy
5:53 PM 78.1 °F - 73.0 °F 84% 30.02 in 10.0 mi Calm Calm - N/A   Clear
6:00 PM 78.1 °F - 73.9 °F 87% 30.00 in 10.0 mi Calm Calm - N/A Thunderstorm Clear
6:15 PM 78.1 °F - 73.9 °F 87% 30.00 in 10.0 mi Calm Calm - 0.00 in Rain Light Rain
6:53 PM 78.1 °F - 75.0 °F 90% 30.03 in 9.0 mi ENE 4.6 mph - 0.01 in Rain Light Rain
7:53 PM 75.9 °F - 73.9 °F 94% 30.02 in 10.0 mi ENE 5.8 mph - 0.04 in Rain Light Rain
8:53 PM 75.2 °F - 73.4 °F 94% 30.02 in 10.0 mi East 6.9 mph - N/A   Scattered Clouds
9:53 PM 75.9 °F - 73.9 °F 94% 30.05 in 10.0 mi Calm Calm - N/A   Clear
10:26 PM 75.9 °F - 73.9 °F 94% 30.03 in 10.0 mi Calm Calm - N/A   Scattered Clouds
10:33 PM 75.9 °F - 73.9 °F 94% 30.03 in 10.0 mi NNE 3.5 mph - N/A   Mostly Cloudy
10:45 PM 75.9 °F - 75.0 °F 97% 30.03 in 10.0 mi Calm Calm - N/A   Overcast
11:19 PM 75.9 °F - 75.0 °F 97% 30.02 in 10.0 mi Calm Calm - N/A   Scattered Clouds
11:53 PM 75.9 °F - 75.0 °F 97% 30.02 in 8.0 mi Calm Calm - N/A   Clear